Weather observations for the past three days for
Farmville
Imperial (Metric)
Date Time (edt) Wind (mph) Vis. (mi.) Weather Sky Cond. Temperature (ºF) Relative Humidity Wind Chill (°F) Heat Index (°F) Pressure Precipitation (in)
Air Dwpt 6 hour altimeter (in) sea level (mb) 1 hr 3 hr 6 hr
Max. Min.
24 08:15 Calm 10.00 Partly Cloudy SCT080 SCT100 79.7 71.1 75% 83 29.77 0.0
24 07:55 Calm 10.00 Mostly Cloudy BKN080 79.3 71.1 79.7 75.2 76% 82 29.76 0.0
24 07:35 Calm 10.00 Partly Cloudy SCT080 SCT120 78.8 71.4 78% 82 29.76 0.0
24 07:15 Calm 10.00 Partly Cloudy SCT120 78.4 71.8 80% 81 29.75 0.0
24 06:55 Calm 10.00 Partly Cloudy SCT120 77.2 72.1 85% 79 29.74 0.0
24 06:35 SW 3 10.00 Fair CLR 75.4 73 92% 74 29.73 0.0
24 06:15 SW 3 10.00 Partly Cloudy SCT110 75.2 73.4 94% 74 29.73 0.0
24 05:55 SW 3 10.00 Partly Cloudy SCT100 75.4 73.4 94% 74 29.73 0.0
24 05:35 SW 3 10.00 Overcast OVC100 76.1 73.4 91% 76 29.73 0.0
24 05:15 Calm 10.00 Overcast OVC100 75.9 73.4 92% 76 29.72 0.0
24 04:55 SW 3 10.00 Mostly Cloudy SCT080 BKN100 75.7 72.9 91% 75 29.72 0.0
24 04:35 SW 5 10.00 Partly Cloudy SCT080 75.9 72.1 88% 76 29.72 0.0
24 04:15 SW 5 10.00 Partly Cloudy SCT080 76.5 71.6 85% 77 29.72 0.0
24 03:55 SW 6 10.00 Partly Cloudy SCT080 77.2 71.2 82% 79 29.71 0.0
24 03:35 SW 7 10.00 Fair CLR 77.7 71.1 80% 80 29.72 0.0
24 02:55 SW 6 10.00 Overcast BKN070 OVC090 78.8 71.4 78% 82 29.73 0.0
24 02:35 SW 7 10.00 Overcast BKN070 OVC080 78.8 71.6 79% 82 29.74 0.0
24 02:15 SW 9 10.00 Overcast BKN070 OVC080 79 71.6 78% 82 29.74 0.0
24 01:35 SW 6 10.00 Overcast SCT070 BKN085 OVC110 79.3 71.6 77% 83 29.75 0.0
24 01:15 SW 8 10.00 Mostly Cloudy BKN100 79.7 71.6 76% 83 29.76 0.0
24 00:55 S 8 10.00 Mostly Cloudy BKN100 79.7 71.8 77% 83 29.75 0.0
24 00:35 SW 7 10.00 Partly Cloudy SCT120 79.9 72 77% 84 29.74 0.0
24 00:15 SW 6 10.00 Partly Cloudy SCT120 79.9 71.8 76% 84 29.75 0.0
23 23:55 SW 6 10.00 Fair CLR 79.7 72.3 78% 83 29.75 0.0
23 23:35 SW 6 10.00 Partly Cloudy SCT120 79.7 72.7 79% 84 29.75 0.0
23 23:15 SW 5 10.00 Mostly Cloudy BKN120 79.7 73.2 81% 84 29.76 0.0
23 22:55 SW 3 10.00 Partly Cloudy SCT120 79.2 73.4 83% 83 29.76 0.0
23 22:35 SW 3 10.00 Mostly Cloudy BKN120 79 73.4 83% 82 29.76 0.0
23 22:15 S 3 10.00 Partly Cloudy SCT120 78.8 73.4 84% 82 29.75 0.0
23 21:55 SW 3 10.00 Partly Cloudy SCT110 78.8 73.4 84% 82 29.75 0.0
23 21:35 S 3 10.00 Partly Cloudy SCT110 79.5 72.9 80% 83 29.75 0.0
23 20:55 SW 3 10.00 Fair CLR 79.9 72.7 79% 84 29.75 0.0
23 19:55 S 5 10.00 Partly Cloudy SCT075 81.7 71.1 91.6 81.3 70% 86 29.76 0.0
23 19:35 S 6 10.00 Fair CLR 81.7 70.7 69% 86 29.75 0.0
23 19:15 SW 6 10.00 Fair CLR 82 70.7 69% 86 29.75 0.0
23 18:55 S 7 10.00 Fair CLR 82.6 70.3 67% 87 29.75 0.0
23 18:35 S 10 G 17 10.00 Fair CLR 83.3 70.9 66% 88 29.75 0.0
23 18:15 S 12 G 18 10.00 Fair CLR 84.4 71.2 65% 90 29.75 0.0
23 17:55 S 17 G 24 10.00 Fair CLR 86.9 72.1 62% 94 29.76 0.0
23 17:35 S 9 10.00 Fair CLR 86.5 72.1 62% 93 29.76 0.0
23 17:15 S 13 G 20 10.00 Fair CLR 86.9 71.2 60% 93 29.76 0.0
23 16:55 S 10 10.00 Fair CLR 88.2 70 55% 93 29.76 0.0
23 16:35 S 12 G 20 10.00 Fair CLR 90.3 69.8 51% 96 29.77 0.0
23 16:15 S 9 10.00 Fair CLR 89.8 67.8 48% 94 29.77 0.0
23 15:55 S 9 10.00 Partly Cloudy SCT110 86 69.3 57% 90 29.79 0.0
23 15:35 S 7 10.00 Overcast SCT090 OVC110 81.7 69.4 67% 85 29.79 0.0
23 15:15 S 13 G 22 10.00 Overcast SCT085 OVC110 81.7 68.9 65% 85 29.8 0.0
23 14:55 S 7 10.00 Mostly Cloudy BKN100 83.3 69.6 63% 87 29.81 0.0
23 14:35 S 10 G 15 10.00 Overcast OVC100 82.8 68.7 63% 86 29.81 0.0
23 14:15 S 13 G 18 10.00 Thunderstorm in Vicinity SCT050 SCT070 OVC110 87.1 72.7 62% 94 29.81 0.0
23 13:55 S 7 10.00 Overcast SCT048 SCT050 OVC110 90 71.1 93 78.8 54% 96 29.82 0.0
23 13:35 SW 8 10.00 Mostly Cloudy BKN048 BKN055 BKN065 89.6 70.3 53% 95 29.83 0.0
23 13:15 S 15 10.00 Fair CLR 91.8 72 52% 99 29.83 0.0
23 12:55 S 10 G 17 10.00 Fair CLR 92.8 72.3 51% 101 29.85 0.0
23 12:35 S 14 G 18 10.00 Fair CLR 91 72.9 55% 99 29.86 0.0
23 12:15 S 10 G 17 10.00 Fair CLR 90.7 73 56% 99 29.86 0.0
23 11:55 S 12 G 16 10.00 Fair CLR 89.8 72.9 58% 98 29.87 0.0
23 11:35 S 16 G 21 10.00 Fair CLR 89.2 72.1 57% 96 29.88 0.0
23 11:15 S 13 G 17 10.00 Partly Cloudy SCT095 88.2 72 59% 95 29.88 0.0
23 10:55 SW 10 G 17 10.00 Partly Cloudy SCT095 86.5 72 62% 93 29.88 0.0
23 10:35 S 14 G 18 10.00 Mostly Cloudy BKN095 87.3 72.5 62% 94 29.89 0.0
23 10:15 SW 9 10.00 Mostly Cloudy BKN095 86.4 72.3 63% 93 29.89 0.0
23 09:55 SW 8 10.00 Fair CLR 86 72.5 64% 93 29.89 0.0
23 09:35 SW 9 10.00 Fair CLR 84.2 72.1 67% 90 29.9 0.0
23 09:15 S 10 G 16 10.00 Fair CLR 83.1 73 72% 89 29.9 0.0
23 08:55 SW 9 G 16 10.00 Fair CLR 81.9 72.9 74% 87 29.91 0.0
23 08:35 S 10 10.00 Fair CLR 80.6 72.9 77% 85 29.91 0.0
23 08:15 SW 10 10.00 Fair CLR 79.7 72.7 79% 84 29.91 0.0
23 07:55 SW 12 10.00 Fair CLR 78.6 72.5 78.6 73.9 82% 82 29.91 0.0
23 07:35 SW 9 10.00 Fair CLR 77.2 72.3 85% 79 29.92 0.0
23 07:15 S 7 10.00 Fair CLR 76.3 71.8 86% 77 29.92 0.0
23 06:55 S 7 10.00 Fair CLR 75.4 71.6 88% 75 29.92 0.0
23 06:35 SW 6 10.00 Fair CLR 74.7 71.2 89% 29.93 0.0
23 06:15 SW 5 10.00 Fair CLR 74.3 70.7 89% 29.93 0.0
23 05:55 SW 5 10.00 Fair CLR 74.3 70.5 88% 29.93 0.0
23 05:35 SW 5 10.00 Fair CLR 74.5 70.2 86% 29.93 0.0
23 05:15 SW 5 10.00 Fair CLR 74.5 69.8 85% 29.93 0.0
23 04:55 S 6 10.00 Fair CLR 74.3 69.3 84% 29.93 0.0
23 04:35 SW 6 10.00 Fair CLR 74.8 68.9 82% 29.93 0.0
23 04:15 SW 5 10.00 Fair CLR 74.8 68.2 80% 29.93 0.0
23 03:55 SW 6 10.00 Fair CLR 75.4 68 78% 76 29.93 0.0
23 03:35 SW 6 10.00 Fair CLR 76.1 67.5 75% 78 29.93 0.0
23 03:15 SW 7 10.00 Fair CLR 76.1 67.1 74% 78 29.93 0.0
23 02:55 SW 6 10.00 Fair CLR 75.2 67.3 77% 76 29.94 0.0
23 02:35 SW 5 10.00 Fair CLR 75.2 67.6 77% 76 29.94 0.0
23 02:15 Calm 10.00 Fair CLR 75.6 67.8 77% 77 29.94 0.0
23 01:55 SW 3 10.00 Fair CLR 75.6 68 88 75.4 77% 77 29.94 0.0
23 01:35 SW 3 10.00 Fair CLR 76.6 68 75% 78 29.94 0.0
23 01:15 SW 3 10.00 Fair CLR 77 68.4 75% 79 29.95 0.0
23 00:55 SW 3 10.00 Fair CLR 77.2 68.9 76% 79 29.95 0.0
23 00:35 SW 3 10.00 Fair CLR 78.8 68.7 71% 81 29.96 0.0
23 00:15 SW 5 10.00 Fair CLR 79.3 68.5 70% 82 29.96 0.0
22 23:55 SW 5 10.00 Fair CLR 79.7 68.9 70% 82 29.96 0.0
22 23:35 SW 6 10.00 Fair CLR 80.2 68.9 68% 83 29.96 0.0
22 23:15 SW 5 10.00 Fair CLR 77.9 68.9 74% 80 29.96 0.0
22 22:55 SW 3 10.00 Fair CLR 78.8 69.1 72% 81 29.97 0.0
22 22:35 Calm 10.00 Fair CLR 79.7 69.3 71% 83 29.97 0.0
22 22:15 S 3 10.00 Fair CLR 81.1 69.4 68% 84 29.96 0.0
22 21:55 S 3 10.00 Fair CLR 81.5 69.1 66% 85 29.96 0.0
22 21:35 S 3 10.00 Fair CLR 82.8 68.9 63% 86 29.96 0.0
22 21:15 SW 5 10.00 Fair CLR 83.7 68.9 61% 87 29.95 0.0
22 20:55 S 5 10.00 Fair CLR 83.7 68.4 60% 87 29.95 0.0
22 20:35 S 5 10.00 Fair CLR 85.8 68 55% 89 29.95 0.0
22 20:15 S 6 10.00 Fair CLR 87.1 67.5 52% 90 29.95 0.0
22 19:55 S 7 10.00 Fair CLR 88 66.4 49% 91 29.94 0.0
22 14:35 S 6 10.00 Fair CLR 94.6 57.9 29% 94 30.02 0.0
22 13:55 SW 8 G 17 10.00 Fair CLR 93.2 58.1 94.3 74.3 31% 92 30.04 0.0
22 13:35 SW 9 10.00 Fair CLR 93.4 59.5 32% 93 30.04 0.0
22 13:15 S 8 10.00 Fair CLR 92.5 59.5 33% 92 30.05 0.0
22 12:55 S 9 10.00 Fair CLR 92.5 61.5 36% 93 30.06 0.0
22 12:35 SW 8 10.00 Fair CLR 91.4 61.2 36% 92 30.07 0.0
22 12:15 S 12 10.00 Fair CLR 91 63.9 41% 92 30.07 0.0
22 11:55 SW 7 10.00 Fair CLR 90.1 63.7 41% 91 30.08 0.0
22 11:35 S 10 G 20 10.00 Fair CLR 90 64.8 43% 92 30.08 0.0
22 11:15 S 8 10.00 Fair CLR 89.1 64.2 44% 91 30.09 0.0
22 10:55 S 9 10.00 Fair CLR 88.9 64.9 45% 91 30.08 0.0
22 10:35 SW 8 10.00 Fair CLR 87.4 64.2 46% 89 30.09 0.0
22 10:15 SW 7 10.00 Fair CLR 86.4 64.2 48% 88 30.1 0.0
22 09:55 SW 7 10.00 Fair CLR 85.3 64.9 51% 87 30.1 0.0
22 09:35 S 6 10.00 Fair CLR 83.5 66.9 58% 86 30.11 0.0
22 09:15 S 5 10.00 Fair CLR 81.3 66.9 62% 84 30.11 0.0
22 08:55 SW 5 10.00 Fair CLR 79 66.2 65% 81 30.11 0.0
22 08:35 S 6 10.00 Fair CLR 77.4 66 68% 79 30.12 0.0
22 08:15 S 6 10.00 Fair CLR 75.7 65.7 71% 77 30.12 0.0
22 07:55 S 5 10.00 Fair CLR 74.1 65.8 74.1 65.7 75% 30.11 0.0
22 07:35 S 5 10.00 Fair CLR 71.8 65.8 82% 30.12 0.0
22 07:15 S 3 10.00 Fair CLR 69.6 65.5 87% 30.12 0.0
22 06:55 S 3 10.00 Fair CLR 68 64.6 89% 30.12 0.0
22 06:35 S 3 10.00 Fair CLR 67.1 64 90% 30.12 0.0
22 06:15 Calm 10.00 Fair CLR 67.1 63.7 89% 30.11 0.0
22 05:55 Calm 10.00 Fair CLR 66.9 63.7 89% 30.11 0.0
22 05:35 SW 3 10.00 Fair CLR 66.2 63.5 91% 30.11 0.0
22 05:15 SW 3 10.00 Fair CLR 68 63.7 86% 30.11 0.0
22 04:55 Calm 10.00 Fair CLR 66 63.5 92% 30.11 0.0
22 04:35 Calm 10.00 Fair CLR 67.3 64.4 91% 30.11 0.0
22 04:15 Calm 10.00 Fair CLR 67.1 64.8 92% 30.11 0.0
22 03:55 Calm 10.00 Fair CLR 66.9 65.3 95% 30.11 0.0
22 03:35 Calm 10.00 Fair CLR 67.6 64.8 91% 30.11 0.0
22 03:15 Calm 10.00 Fair CLR 67.3 64.6 91% 30.11 0.0
22 02:55 Calm 10.00 Fair CLR 70.2 64.6 83% 30.12 0.0
22 02:35 Calm 10.00 Fair CLR 68.4 65.3 90% 30.13 0.0
22 02:15 Calm 10.00 Fair CLR 69.3 64.9 86% 30.13 0.0
22 01:55 Calm 10.00 Fair CLR 69.3 65.3 84.6 69.3 87% 30.13 0.0
22 01:35 Calm 10.00 Fair CLR 69.6 65.1 86% 30.13 0.0
22 01:15 SW 3 10.00 Fair CLR 70.2 65.3 85% 30.14 0.0
22 00:55 Calm 10.00 Fair CLR 70.2 65.7 86% 30.14 0.0
22 00:35 Calm 10.00 Fair CLR 70.9 65.8 84% 30.14 0.0
22 00:15 Calm 10.00 Fair CLR 70.9 65.5 83% 30.14 0.0
21 23:35 Calm 10.00 Fair CLR 73.8 64.9 74% 30.14 0.0
21 23:15 Calm 10.00 Fair CLR 73.6 65.1 75% 30.14 0.0
21 22:55 Calm 10.00 Fair CLR 74.3 65.3 74% 30.14 0.0
21 22:35 Calm 10.00 Fair CLR 75.6 65.1 70% 77 30.14 0.0
21 22:15 Calm 10.00 Fair CLR 78.4 64.8 63% 80 30.14 0.0
21 21:55 S 3 10.00 Fair CLR 79 64.4 61% 81 30.13 0.0
21 21:35 Calm 10.00 Fair CLR 79.9 64.4 59% 82 30.12 0.0
21 21:15 S 3 10.00 Fair CLR 80.2 64.4 59% 82 30.11 0.0
21 20:55 S 3 10.00 Fair CLR 81.1 64.4 57% 83 30.11 0.0
21 20:35 S 5 10.00 Fair CLR 82.4 64.2 54% 84 30.11 0.0
21 20:15 S 5 10.00 Fair CLR 83.3 64.2 53% 85 30.11 0.0
21 19:55 S 3 10.00 Fair CLR 84.7 63.9 92.8 84.7 50% 86 30.11 0.0
21 19:35 S 5 10.00 Fair CLR 86.4 63.3 46% 87 30.11 0.0
21 19:15 S 7 10.00 Fair CLR 88.3 61.9 41% 89 30.11 0.0
21 18:55 S 6 10.00 Fair CLR 89.8 61.7 39% 90 30.11 0.0
21 18:35 S 7 10.00 Fair CLR 90.5 62.1 39% 91 30.11 0.0
21 18:15 S 6 10.00 Fair CLR 90.9 60.3 36% 91 30.11 0.0
21 17:55 S 8 10.00 Fair CLR 91.8 61 36% 92 30.12 0.0
21 17:35 S 7 10.00 Fair CLR 91.9 61.9 37% 92 30.13 0.0
21 17:15 S 8 10.00 Fair CLR 91.9 61.2 36% 92 30.14 0.0
21 16:55 S 6 10.00 Fair CLR 92.8 60.4 34% 93 30.14 0.0
21 16:35 Calm 10.00 Fair CLR 91.6 59.9 35% 91 30.15 0.0
21 16:15 S 10 10.00 Fair CLR 91.6 61.7 37% 92 30.15 0.0
21 15:55 SE 8 10.00 Fair CLR 91.6 61.7 37% 92 30.16 0.0
21 15:35 SE 3 10.00 Fair CLR 91.4 61.3 37% 92 30.17 0.0
21 15:15 S 6 10.00 Fair CLR 90.9 59.9 35% 90 30.17 0.0
21 14:55 S 7 10.00 Fair CLR 91 63.9 41% 92 30.18 0.0
21 14:35 Calm 10.00 Fair CLR 90.3 61.3 38% 90 30.19 0.0
21 14:15 SW 7 10.00 Fair CLR 89.1 62.6 41% 90 30.19 0.0
21 13:55 S 7 10.00 Fair CLR 88.7 62.6 42% 89 30.19 0.0
21 13:35 SE 5 10.00 Fair CLR 88.2 64.6 46% 90 30.2 0.0
21 13:15 S 8 10.00 Fair CLR 87.3 64.4 47% 89 30.22 0.0
21 12:55 S 7 10.00 Partly Cloudy SCT048 87.3 63.9 46% 89 30.22 0.0
21 12:35 S 5 10.00 Fair CLR 86.2 64.6 49% 88 30.23 0.0
21 11:35 S 7 10.00 Fair CLR 0 0 0% 30.25 0.0
Date Time (edt) Wind (mph) Vis. (mi.) Weather Sky Cond. Air Dwpt Max. Min. Relative Humidity Wind Chill (°F) Heat Index (°F) altimeter (in) sea level (mb) 1 hr 3 hr 6 hr
6 hour
Temperature (ºF) Pressure Precipitation (in)